START_TIME,STEP,MOV.,AL01,t_acc.,AL02,t_acc.,E37,t_acc.,H21,t_acc.
1986-01-26 21:00:35.560 ,2,0,0.,24.0,0.,24.0,0.,24.0,0.,24.0
1986-01-26 21:00:59.560 ,3,1,0.,24.0,0.,24.0,0.,24.0,0.,24.0
1986-01-26 21:01:23.560 ,3,0,0.,24.0,0.,24.0,0.,24.0,0.,24.0
1986-01-26 21:01:47.560 ,4,1,0.,24.0,0.,24.0,0.,24.0,0.,24.0
1986-01-26 21:02:11.560 ,4,0,0.,24.0,0.,24.0,0.,24.0,0.,24.0
1986-01-26 21:02:35.560 ,5,1,0.,24.0,0.,24.0,0.,24.0,0.,24.0
1986-01-26 21:02:59.560 ,5,0,0.,24.0,0.,24.0,0.,24.0,0.,24.0
1986-01-26 21:03:23.560 ,6,1,0.,24.0,0.,24.0,0.,24.0,0.,24.0
1986-01-26 21:03:47.560 ,6,0,0.,24.0,0.,24.0,0.,24.0,0.,24.0
1986-01-26 21:04:11.560 ,7,1,7.,24.0,0.,24.0,0.,24.0,0.,24.0
1986-01-26 21:04:35.560 ,7,0,31.,24.0,0.,24.0,0.,24.0,0.,24.0
1986-01-26 21:04:59.560 ,7,1,20.,24.0,0.,24.0,0.,24.0,0.,24.0
1986-01-26 21:05:23.560 ,7,0,25.,24.0,0.,24.0,0.,24.0,0.,24.0
1986-01-26 21:05:47.560 ,6,1,26.,24.0,0.,24.0,0.,24.0,0.,24.0
1986-01-26 21:06:11.560 ,6,0,0.,24.0,0.,24.0,0.,24.0,0.,24.0
1986-01-26 21:06:35.560 ,5,1,0.,24.0,0.,24.0,0.,24.0,0.,24.0
1986-01-26 21:06:59.560 ,5,0,0.,24.0,0.,24.0,0.,24.0,0.,24.0
1986-01-26 21:07:23.560 ,4,1,0.,24.0,0.,24.0,0.,24.0,0.,24.0
1986-01-26 21:07:47.560 ,4,0,0.,24.0,0.,24.0,0.,24.0,0.,24.0
1986-01-26 21:08:11.560 ,3,1,0.,24.0,0.,24.0,0.,24.0,0.,24.0
1986-01-26 21:08:35.560 ,3,0,0.,24.0,0.,24.0,0.,24.0,0.,24.0
1986-01-26 21:08:59.560 ,2,1,0.,24.0,0.,24.0,0.,24.0,0.,24.0
1986-01-26 21:09:23.560 ,2,0,1.,24.0,0.,24.0,0.,24.0,0.,24.0
1986-01-26 21:09:47.560 ,1,1,0.,24.0,0.,24.0,0.,24.0,0.,24.0
1986-01-26 21:10:11.560 ,1,0,0.,24.0,0.,24.0,0.,24.0,0.,24.0
1986-01-26 21:10:35.560 ,0,1,0.,24.0,0.,24.0,0.,24.0,0.,24.0
1986-01-26 21:10:59.560 ,0,0,0.,24.0,0.,24.0,0.,24.0,0.,24.0
1986-01-26 21:11:23.560 ,0,1,0.,24.0,0.,24.0,0.,24.0,0.,24.0
1986-01-26 21:11:47.560 ,0,0,0.,24.0,0.,24.0,0.,24.0,0.,24.0
1986-01-26 21:12:11.560 ,1,1,0.,24.0,0.,24.0,0.,24.0,0.,24.0
1986-01-26 21:12:35.560 ,1,0,0.,24.0,0.,24.0,0.,24.0,0.,24.0
1986-01-26 21:12:59.560 ,2,1,0.,24.0,0.,24.0,0.,24.0,0.,24.0
1986-01-26 21:13:23.560 ,2,0,0.,24.0,0.,24.0,0.,24.0,0.,24.0
1986-01-26 21:13:47.560 ,3,1,0.,24.0,0.,24.0,0.,24.0,0.,24.0
1986-01-26 21:14:11.560 ,3,0,0.,24.0,0.,24.0,0.,24.0,0.,24.0
1986-01-26 21:14:35.560 ,4,1,0.,24.0,0.,24.0,0.,24.0,0.,24.0
1986-01-26 21:14:59.560 ,4,0,0.,24.0,0.,24.0,0.,24.0,0.,24.0
1986-01-26 21:15:23.560 ,5,1,0.,24.0,0.,24.0,0.,24.0,0.,24.0
1986-01-26 21:15:47.560 ,5,0,0.,24.0,0.,24.0,0.,24.0,0.,24.0
1986-01-26 21:16:11.560 ,6,1,0.,24.0,0.,24.0,0.,24.0,0.,24.0
1986-01-26 21:16:35.560 ,6,0,0.,24.0,0.,24.0,0.,24.0,0.,24.0
1986-01-26 21:16:59.560 ,7,1,2.,24.0,0.,24.0,0.,24.0,0.,24.0
1986-01-26 21:17:23.560 ,7,0,34.,24.0,0.,24.0,0.,24.0,0.,24.0
1986-01-26 21:17:47.560 ,7,1,31.,24.0,0.,24.0,0.,24.0,0.,24.0
1986-01-26 21:18:11.560 ,7,0,39.,24.0,0.,24.0,0.,24.0,0.,24.0
1986-01-26 21:18:35.560 ,6,1,22.,24.0,0.,24.0,0.,24.0,0.,24.0
1986-01-26 21:18:59.560 ,6,0,0.,24.0,0.,24.0,0.,24.0,0.,24.0
1986-01-26 21:19:23.560 ,5,1,0.,24.0,0.,24.0,0.,24.0,0.,24.0
1986-01-26 21:19:47.560 ,5,0,0.,24.0,0.,24.0,0.,24.0,0.,24.0
1986-01-26 21:20:11.560 ,4,1,0.,24.0,0.,24.0,0.,24.0,0.,24.0
1986-01-26 21:20:35.560 ,4,0,0.,24.0,0.,24.0,0.,24.0,0.,24.0
1986-01-26 21:20:59.560 ,3,1,0.,24.0,0.,24.0,0.,24.0,0.,24.0
1986-01-26 21:21:23.560 ,3,0,0.,24.0,0.,24.0,0.,24.0,0.,24.0
1986-01-26 21:21:47.560 ,2,1,0.,24.0,0.,24.0,0.,24.0,0.,24.0
1986-01-26 21:22:11.560 ,2,0,1.,24.0,0.,24.0,0.,24.0,0.,24.0
1986-01-26 21:22:35.560 ,1,1,0.,24.0,0.,24.0,0.,24.0,0.,24.0
1986-01-26 21:22:59.560 ,1,0,0.,24.0,0.,24.0,0.,24.0,0.,24.0
1986-01-26 21:23:23.560 ,0,1,0.,24.0,0.,24.0,0.,24.0,0.,24.0
1986-01-26 21:23:47.560 ,0,0,0.,24.0,0.,24.0,0.,24.0,0.,24.0
1986-01-26 21:24:11.560 ,0,1,0.,24.0,0.,24.0,0.,24.0,0.,24.0
1986-01-26 21:24:35.560 ,0,0,0.,24.0,0.,24.0,0.,24.0,0.,24.0
1986-01-26 21:24:59.560 ,1,1,0.,24.0,0.,24.0,0.,24.0,0.,24.0
1986-01-26 21:25:23.560 ,1,0,0.,24.0,0.,24.0,0.,24.0,0.,24.0
1986-01-26 21:25:47.560 ,2,1,0.,24.0,0.,24.0,0.,24.0,0.,24.0
1986-01-26 21:26:11.560 ,2,0,0.,24.0,0.,24.0,0.,24.0,0.,24.0
1986-01-26 21:26:35.560 ,3,1,0.,24.0,0.,24.0,0.,24.0,0.,24.0
1986-01-26 21:26:59.560 ,3,0,0.,24.0,0.,24.0,0.,24.0,0.,24.0
1986-01-26 21:27:23.560 ,4,1,0.,24.0,0.,24.0,0.,24.0,0.,24.0
1986-01-26 21:27:47.560 ,4,0,0.,24.0,0.,24.0,0.,24.0,0.,24.0
1986-01-26 21:28:11.560 ,5,1,0.,24.0,0.,24.0,0.,24.0,0.,24.0
1986-01-26 21:28:35.560 ,5,0,0.,24.0,0.,24.0,0.,24.0,0.,24.0
1986-01-26 21:28:59.560 ,6,1,0.,24.0,0.,24.0,0.,24.0,0.,24.0
1986-01-26 21:29:23.560 ,6,0,0.,24.0,0.,24.0,0.,24.0,0.,24.0
1986-01-26 21:29:47.560 ,7,1,7.,24.0,0.,24.0,0.,24.0,0.,24.0
1986-01-26 21:30:11.560 ,7,0,29.,24.0,0.,24.0,0.,24.0,0.,24.0
1986-01-26 21:30:35.560 ,7,1,31.,24.0,0.,24.0,0.,24.0,0.,24.0
1986-01-26 21:30:59.560 ,7,0,26.,24.0,0.,24.0,0.,24.0,0.,24.0
1986-01-26 21:31:23.560 ,6,1,21.,24.0,0.,24.0,0.,24.0,0.,24.0
1986-01-26 21:31:47.560 ,6,0,0.,24.0,1.,24.0,0.,24.0,0.,24.0
1986-01-26 21:32:11.560 ,5,1,0.,24.0,0.,24.0,0.,24.0,0.,24.0
1986-01-26 21:32:35.560 ,5,0,0.,24.0,0.,24.0,0.,24.0,0.,24.0
1986-01-26 21:32:59.560 ,4,1,0.,24.0,0.,24.0,0.,24.0,0.,24.0
1986-01-26 21:33:23.560 ,4,0,0.,24.0,0.,24.0,0.,24.0,0.,24.0
1986-01-26 21:33:47.560 ,3,1,0.,24.0,0.,24.0,0.,24.0,0.,24.0
1986-01-26 21:34:11.560 ,3,0,1.,24.0,0.,24.0,0.,24.0,0.,24.0
1986-01-26 21:34:35.560 ,2,1,0.,24.0,0.,24.0,0.,24.0,0.,24.0
1986-01-26 21:34:59.560 ,2,0,1.,24.0,0.,24.0,0.,24.0,0.,24.0
1986-01-26 21:35:23.560 ,1,1,1.,24.0,0.,24.0,0.,24.0,0.,24.0
1986-01-26 21:35:47.560 ,1,0,0.,24.0,0.,24.0,0.,24.0,0.,24.0
1986-01-26 21:36:11.560 ,0,1,0.,24.0,0.,24.0,0.,24.0,0.,24.0
1986-01-26 21:36:35.560 ,0,0,0.,24.0,0.,24.0,0.,24.0,0.,24.0
1986-01-26 21:36:59.560 ,0,1,0.,24.0,0.,24.0,0.,24.0,0.,24.0
1986-01-26 21:37:23.560 ,0,0,1.,24.0,0.,24.0,0.,24.0,0.,24.0
1986-01-26 21:37:47.560 ,1,1,0.,24.0,0.,24.0,0.,24.0,0.,24.0
1986-01-26 21:38:11.560 ,1,0,0.,24.0,0.,24.0,0.,24.0,0.,24.0
1986-01-26 21:38:35.560 ,2,1,0.,24.0,0.,24.0,0.,24.0,0.,24.0
1986-01-26 21:38:59.560 ,2,0,0.,24.0,0.,24.0,0.,24.0,0.,24.0
1986-01-26 21:39:23.560 ,3,1,0.,24.0,0.,24.0,0.,24.0,0.,24.0
1986-01-26 21:39:47.560 ,3,0,0.,24.0,0.,24.0,0.,24.0,0.,24.0
1986-01-26 21:40:11.560 ,4,1,0.,24.0,0.,24.0,0.,24.0,0.,24.0
1986-01-26 21:40:35.560 ,4,0,0.,24.0,0.,24.0,0.,24.0,0.,24.0
1986-01-26 21:40:59.560 ,5,1,0.,24.0,0.,24.0,0.,24.0,0.,24.0
1986-01-26 21:41:23.560 ,5,0,0.,24.0,0.,24.0,0.,24.0,0.,24.0
1986-01-26 21:41:47.560 ,6,1,0.,24.0,0.,24.0,0.,24.0,0.,24.0
1986-01-26 21:42:11.560 ,6,0,0.,24.0,1.,24.0,0.,24.0,0.,24.0
1986-01-26 21:42:35.560 ,7,1,7.,24.0,0.,24.0,0.,24.0,0.,24.0
1986-01-26 21:42:59.560 ,7,0,26.,24.0,0.,24.0,0.,24.0,0.,24.0
1986-01-26 21:43:23.560 ,7,1,24.,24.0,1.,24.0,0.,24.0,0.,24.0
1986-01-26 21:43:47.560 ,7,0,29.,24.0,0.,24.0,0.,24.0,0.,24.0
1986-01-26 21:44:11.560 ,6,1,17.,24.0,0.,24.0,0.,24.0,0.,24.0
1986-01-26 21:44:35.560 ,6,0,0.,24.0,0.,24.0,0.,24.0,0.,24.0
1986-01-26 21:44:59.560 ,5,1,0.,24.0,0.,24.0,0.,24.0,0.,24.0
1986-01-26 21:45:23.560 ,5,0,0.,24.0,0.,24.0,0.,24.0,0.,24.0
1986-01-26 21:45:47.560 ,4,1,0.,24.0,0.,24.0,0.,24.0,0.,24.0
1986-01-26 21:46:11.560 ,4,0,0.,24.0,0.,24.0,0.,24.0,0.,24.0
1986-01-26 21:46:35.560 ,3,1,0.,24.0,0.,24.0,0.,24.0,0.,24.0
1986-01-26 21:46:59.560 ,3,0,0.,24.0,0.,24.0,0.,24.0,0.,24.0
1986-01-26 21:47:23.560 ,2,1,0.,24.0,0.,24.0,0.,24.0,0.,24.0
1986-01-26 21:47:47.560 ,2,0,1.,24.0,0.,24.0,0.,24.0,0.,24.0
1986-01-26 21:48:11.560 ,1,1,0.,24.0,0.,24.0,0.,24.0,0.,24.0
1986-01-26 21:48:35.560 ,1,0,0.,24.0,0.,24.0,0.,24.0,0.,24.0
1986-01-26 21:48:59.560 ,0,1,0.,24.0,0.,24.0,0.,24.0,0.,24.0
1986-01-26 21:49:23.560 ,0,0,0.,24.0,0.,24.0,0.,24.0,0.,24.0
1986-01-26 21:49:47.560 ,0,1,0.,24.0,0.,24.0,0.,24.0,0.,24.0
1986-01-26 21:50:11.560 ,0,0,0.,24.0,0.,24.0,0.,24.0,0.,24.0
1986-01-26 21:50:35.560 ,1,1,0.,24.0,0.,24.0,0.,24.0,0.,24.0
1986-01-26 21:50:59.560 ,1,0,0.,24.0,0.,24.0,0.,24.0,0.,24.0
1986-01-26 21:51:23.560 ,2,1,0.,24.0,0.,24.0,0.,24.0,0.,24.0
1986-01-26 21:51:47.560 ,2,0,0.,24.0,0.,24.0,0.,24.0,0.,24.0
1986-01-26 21:52:11.560 ,3,1,0.,24.0,0.,24.0,0.,24.0,0.,24.0
1986-01-26 21:52:35.560 ,3,0,0.,24.0,1.,24.0,0.,24.0,0.,24.0
1986-01-26 21:52:59.560 ,4,1,0.,24.0,0.,24.0,0.,24.0,0.,24.0
1986-01-26 21:53:23.560 ,4,0,0.,24.0,0.,24.0,0.,24.0,0.,24.0
1986-01-26 21:53:47.560 ,5,1,0.,24.0,0.,24.0,0.,24.0,0.,24.0
1986-01-26 21:54:11.560 ,5,0,0.,24.0,0.,24.0,0.,24.0,0.,24.0
1986-01-26 21:54:35.560 ,6,1,0.,24.0,0.,24.0,0.,24.0,0.,24.0
1986-01-26 21:54:59.560 ,6,0,0.,24.0,0.,24.0,0.,24.0,0.,24.0
1986-01-26 21:55:23.560 ,7,1,8.,24.0,0.,24.0,0.,24.0,0.,24.0
1986-01-26 21:55:47.560 ,7,0,27.,24.0,0.,24.0,0.,24.0,0.,24.0
1986-01-26 21:56:11.560 ,7,1,34.,24.0,0.,24.0,0.,24.0,0.,24.0
1986-01-26 21:56:35.560 ,7,0,33.,24.0,0.,24.0,0.,24.0,0.,24.0
1986-01-26 21:56:59.560 ,6,1,19.,24.0,0.,24.0,0.,24.0,0.,24.0
1986-01-26 21:57:23.560 ,6,0,0.,24.0,0.,24.0,0.,24.0,0.,24.0
1986-01-26 21:57:47.560 ,5,1,0.,24.0,0.,24.0,0.,24.0,0.,24.0
1986-01-26 21:58:11.560 ,5,0,0.,24.0,0.,24.0,0.,24.0,0.,24.0
1986-01-26 21:58:35.560 ,4,1,0.,24.0,0.,24.0,0.,24.0,0.,24.0
1986-01-26 21:58:59.560 ,4,0,0.,24.0,0.,24.0,0.,24.0,0.,24.0
1986-01-26 21:59:23.550 ,3,1,0.,24.0,0.,24.0,0.,24.0,0.,24.0
1986-01-26 21:59:47.550 ,3,0,0.,24.0,0.,24.0,0.,24.0,0.,24.0
1986-01-26 22:00:11.550 ,2,1,0.,24.0,0.,24.0,0.,24.0,0.,24.0
1986-01-26 22:00:35.560 ,2,0,0.,24.0,0.,24.0,0.,24.0,0.,24.0
1986-01-26 22:00:59.560 ,1,1,0.,24.0,0.,24.0,0.,24.0,0.,24.0
1986-01-26 22:01:23.560 ,1,0,0.,24.0,0.,24.0,0.,24.0,0.,24.0
1986-01-26 22:01:47.560 ,0,1,0.,24.0,0.,24.0,0.,24.0,0.,24.0
1986-01-26 22:02:11.560 ,0,0,0.,24.0,0.,24.0,0.,24.0,0.,24.0
1986-01-26 22:02:35.560 ,0,1,0.,24.0,0.,24.0,0.,24.0,0.,24.0
1986-01-26 22:02:59.560 ,0,0,1.,24.0,0.,24.0,0.,24.0,0.,24.0
1986-01-26 22:03:23.560 ,1,1,0.,24.0,0.,24.0,0.,24.0,0.,24.0
1986-01-26 22:03:47.560 ,1,0,0.,24.0,0.,24.0,0.,24.0,0.,24.0
1986-01-26 22:04:11.560 ,2,1,0.,24.0,0.,24.0,0.,24.0,0.,24.0
1986-01-26 22:04:35.560 ,2,0,0.,24.0,0.,24.0,0.,24.0,0.,24.0
1986-01-26 22:04:59.560 ,3,1,0.,24.0,0.,24.0,0.,24.0,0.,24.0
1986-01-26 22:05:23.560 ,3,0,0.,24.0,0.,24.0,0.,24.0,0.,24.0
1986-01-26 22:05:47.560 ,4,1,0.,24.0,0.,24.0,0.,24.0,0.,24.0
1986-01-26 22:06:11.550 ,4,0,0.,24.0,0.,24.0,0.,24.0,0.,24.0
1986-01-26 22:06:35.560 ,5,1,0.,24.0,0.,24.0,0.,24.0,0.,24.0
1986-01-26 22:06:59.560 ,5,0,0.,24.0,0.,24.0,0.,24.0,0.,24.0
1986-01-26 22:07:23.560 ,6,1,0.,24.0,0.,24.0,0.,24.0,0.,24.0
1986-01-26 22:07:47.560 ,6,0,0.,24.0,0.,24.0,0.,24.0,0.,24.0
1986-01-26 22:08:11.550 ,7,1,4.,24.0,0.,24.0,0.,24.0,0.,24.0
1986-01-26 22:08:35.550 ,7,0,32.,24.0,0.,24.0,0.,24.0,0.,24.0
1986-01-26 22:08:59.550 ,7,1,40.,24.0,0.,24.0,0.,24.0,0.,24.0
1986-01-26 22:09:23.550 ,7,0,40.,24.0,1.,24.0,0.,24.0,0.,24.0
1986-01-26 22:09:47.550 ,6,1,27.,24.0,0.,24.0,0.,24.0,0.,24.0
1986-01-26 22:10:11.550 ,6,0,0.,24.0,0.,24.0,0.,24.0,0.,24.0
1986-01-26 22:10:35.550 ,5,1,0.,24.0,0.,24.0,0.,24.0,0.,24.0
1986-01-26 22:10:59.550 ,5,0,0.,24.0,0.,24.0,0.,24.0,0.,24.0
1986-01-26 22:11:23.550 ,4,1,0.,24.0,0.,24.0,0.,24.0,0.,24.0
1986-01-26 22:11:47.550 ,4,0,0.,24.0,0.,24.0,0.,24.0,0.,24.0
1986-01-26 22:12:11.550 ,3,1,0.,24.0,0.,24.0,0.,24.0,0.,24.0
1986-01-26 22:12:35.550 ,3,0,0.,24.0,0.,24.0,0.,24.0,0.,24.0
1986-01-26 22:12:59.550 ,2,1,0.,24.0,1.,24.0,0.,24.0,0.,24.0
1986-01-26 22:13:23.550 ,2,0,0.,24.0,0.,24.0,0.,24.0,0.,24.0
1986-01-26 22:13:47.550 ,1,1,2.,24.0,0.,24.0,0.,24.0,0.,24.0
1986-01-26 22:14:11.550 ,1,0,0.,24.0,1.,24.0,0.,24.0,0.,24.0
1986-01-26 22:14:35.550 ,0,1,0.,24.0,0.,24.0,0.,24.0,0.,24.0
1986-01-26 22:14:59.550 ,0,0,0.,24.0,0.,24.0,0.,24.0,0.,24.0
1986-01-26 22:15:23.550 ,0,1,0.,24.0,0.,24.0,0.,24.0,0.,24.0
1986-01-26 22:15:47.550 ,0,0,0.,24.0,0.,24.0,0.,24.0,0.,24.0
1986-01-26 22:16:11.550 ,1,1,0.,24.0,0.,24.0,0.,24.0,0.,24.0
1986-01-26 22:16:35.550 ,1,0,0.,24.0,0.,24.0,0.,24.0,0.,24.0
1986-01-26 22:16:59.550 ,2,1,0.,24.0,0.,24.0,0.,24.0,0.,24.0
1986-01-26 22:17:23.550 ,2,0,0.,24.0,0.,24.0,0.,24.0,0.,24.0
1986-01-26 22:17:47.550 ,3,1,0.,24.0,0.,24.0,0.,24.0,0.,24.0
1986-01-26 22:18:11.550 ,3,0,0.,24.0,0.,24.0,0.,24.0,0.,24.0
1986-01-26 22:18:35.550 ,4,1,0.,24.0,0.,24.0,0.,24.0,0.,24.0
1986-01-26 22:18:59.550 ,4,0,0.,24.0,0.,24.0,0.,24.0,0.,24.0
1986-01-26 22:19:23.550 ,5,1,0.,24.0,0.,24.0,0.,24.0,0.,24.0
1986-01-26 22:19:47.550 ,5,0,0.,24.0,0.,24.0,0.,24.0,0.,24.0
1986-01-26 22:20:11.550 ,6,1,0.,24.0,0.,24.0,0.,24.0,0.,24.0
1986-01-26 22:20:35.550 ,6,0,0.,24.0,0.,24.0,0.,24.0,0.,24.0
1986-01-26 22:20:59.550 ,7,1,6.,24.0,0.,24.0,0.,24.0,0.,24.0
1986-01-26 22:21:23.550 ,7,0,32.,24.0,0.,24.0,0.,24.0,0.,24.0
1986-01-26 22:21:47.550 ,7,1,32.,24.0,0.,24.0,0.,24.0,0.,24.0
1986-01-26 22:22:11.550 ,7,0,22.,24.0,0.,24.0,0.,24.0,0.,24.0
1986-01-26 22:22:35.550 ,6,1,23.,24.0,0.,24.0,0.,24.0,0.,24.0
1986-01-26 22:22:59.550 ,6,0,0.,24.0,0.,24.0,0.,24.0,0.,24.0
1986-01-26 22:23:23.550 ,5,1,1.,24.0,0.,24.0,0.,24.0,0.,24.0
1986-01-26 22:23:47.550 ,5,0,0.,24.0,0.,24.0,0.,24.0,0.,24.0
1986-01-26 22:24:11.550 ,4,1,0.,24.0,0.,24.0,0.,24.0,0.,24.0
1986-01-26 22:24:35.550 ,4,0,0.,24.0,0.,24.0,0.,24.0,0.,24.0
1986-01-26 22:24:59.550 ,3,1,0.,24.0,0.,24.0,0.,24.0,0.,24.0
1986-01-26 22:25:23.550 ,3,0,0.,24.0,0.,24.0,0.,24.0,0.,24.0
1986-01-26 22:25:47.550 ,2,1,0.,24.0,0.,24.0,0.,24.0,0.,24.0
1986-01-26 22:26:11.550 ,2,0,0.,24.0,0.,24.0,0.,24.0,0.,24.0
1986-01-26 22:26:35.550 ,1,1,0.,24.0,1.,24.0,0.,24.0,0.,24.0
1986-01-26 22:26:59.550 ,1,0,0.,24.0,1.,24.0,0.,24.0,0.,24.0
1986-01-26 22:27:23.550 ,0,1,0.,24.0,0.,24.0,0.,24.0,0.,24.0
1986-01-26 22:27:47.550 ,0,0,0.,24.0,0.,24.0,0.,24.0,0.,24.0
1986-01-26 22:28:11.550 ,0,1,0.,24.0,0.,24.0,0.,24.0,0.,24.0
1986-01-26 22:28:35.550 ,0,0,0.,24.0,1.,24.0,0.,24.0,0.,24.0
1986-01-26 22:28:59.550 ,1,1,0.,24.0,0.,24.0,0.,24.0,0.,24.0
1986-01-26 22:29:23.550 ,1,0,0.,24.0,0.,24.0,0.,24.0,0.,24.0
1986-01-26 22:29:47.550 ,2,1,0.,24.0,0.,24.0,0.,24.0,0.,24.0
1986-01-26 22:30:11.550 ,2,0,0.,24.0,0.,24.0,0.,24.0,0.,24.0
1986-01-26 22:30:35.550 ,3,1,0.,24.0,0.,24.0,0.,24.0,0.,24.0
1986-01-26 22:30:59.550 ,3,0,0.,24.0,0.,24.0,0.,24.0,0.,24.0
1986-01-26 22:31:23.550 ,4,1,0.,24.0,0.,24.0,0.,24.0,0.,24.0
1986-01-26 22:31:47.550 ,4,0,0.,24.0,0.,24.0,0.,24.0,0.,24.0
1986-01-26 22:32:11.550 ,5,1,0.,24.0,0.,24.0,0.,24.0,0.,24.0
1986-01-26 22:32:35.550 ,5,0,0.,24.0,0.,24.0,0.,24.0,0.,24.0
1986-01-26 22:32:59.550 ,6,1,0.,24.0,0.,24.0,0.,24.0,0.,24.0
1986-01-26 22:33:23.550 ,6,0,0.,24.0,0.,24.0,0.,24.0,0.,24.0
1986-01-26 22:33:47.550 ,7,1,10.,24.0,0.,24.0,0.,24.0,0.,24.0
1986-01-26 22:34:11.550 ,7,0,40.,24.0,0.,24.0,0.,24.0,0.,24.0
1986-01-26 22:34:35.550 ,7,1,31.,24.0,0.,24.0,0.,24.0,0.,24.0
1986-01-26 22:34:59.550 ,7,0,23.,24.0,0.,24.0,0.,24.0,0.,24.0
1986-01-26 22:35:23.550 ,6,1,24.,24.0,0.,24.0,0.,24.0,0.,24.0
1986-01-26 22:35:47.550 ,6,0,0.,24.0,0.,24.0,0.,24.0,0.,24.0
1986-01-26 22:36:11.550 ,5,1,0.,24.0,0.,24.0,0.,24.0,0.,24.0
1986-01-26 22:36:35.550 ,5,0,1.,24.0,0.,24.0,0.,24.0,0.,24.0
1986-01-26 22:36:59.550 ,4,1,0.,24.0,0.,24.0,0.,24.0,0.,24.0
1986-01-26 22:37:23.550 ,4,0,0.,24.0,0.,24.0,0.,24.0,0.,24.0
1986-01-26 22:37:47.550 ,3,1,0.,24.0,0.,24.0,0.,24.0,0.,24.0
1986-01-26 22:38:11.550 ,3,0,0.,24.0,0.,24.0,0.,24.0,0.,24.0
1986-01-26 22:38:35.550 ,2,1,0.,24.0,0.,24.0,0.,24.0,0.,24.0
1986-01-26 22:38:59.550 ,2,0,0.,24.0,0.,24.0,0.,24.0,0.,24.0
1986-01-26 22:39:23.550 ,1,1,0.,24.0,0.,24.0,0.,24.0,0.,24.0
1986-01-26 22:39:47.550 ,1,0,0.,24.0,1.,24.0,0.,24.0,0.,24.0
1986-01-26 22:40:11.550 ,0,1,0.,24.0,0.,24.0,0.,24.0,0.,24.0
1986-01-26 22:40:35.550 ,0,0,1.,24.0,0.,24.0,0.,24.0,0.,24.0
1986-01-26 22:40:59.550 ,0,1,0.,24.0,0.,24.0,0.,24.0,0.,24.0
1986-01-26 22:41:23.550 ,0,0,0.,24.0,0.,24.0,0.,24.0,0.,24.0
1986-01-26 22:41:47.550 ,1,1,0.,24.0,0.,24.0,0.,24.0,0.,24.0
1986-01-26 22:42:11.550 ,1,0,0.,24.0,0.,24.0,0.,24.0,0.,24.0
1986-01-26 22:42:35.550 ,2,1,0.,24.0,0.,24.0,0.,24.0,0.,24.0
1986-01-26 22:42:59.550 ,2,0,0.,24.0,0.,24.0,0.,24.0,0.,24.0
1986-01-26 22:43:23.550 ,3,1,0.,24.0,0.,24.0,0.,24.0,0.,24.0
1986-01-26 22:43:47.550 ,3,0,0.,24.0,0.,24.0,0.,24.0,0.,24.0
1986-01-26 22:44:11.550 ,4,1,0.,24.0,0.,24.0,0.,24.0,0.,24.0
1986-01-26 22:44:35.550 ,4,0,0.,24.0,0.,24.0,0.,24.0,0.,24.0
1986-01-26 22:44:59.550 ,5,1,0.,24.0,0.,24.0,0.,24.0,0.,24.0
1986-01-26 22:45:23.550 ,5,0,0.,24.0,0.,24.0,0.,24.0,0.,24.0
1986-01-26 22:45:47.550 ,6,1,0.,24.0,0.,24.0,0.,24.0,0.,24.0
1986-01-26 22:46:11.550 ,6,0,0.,24.0,0.,24.0,0.,24.0,0.,24.0
1986-01-26 22:46:35.550 ,7,1,15.,24.0,0.,24.0,0.,24.0,0.,24.0
1986-01-26 22:46:59.550 ,7,0,31.,24.0,0.,24.0,0.,24.0,0.,24.0
1986-01-26 22:47:23.550 ,7,1,20.,24.0,0.,24.0,0.,24.0,0.,24.0
1986-01-26 22:47:47.550 ,7,0,40.,24.0,0.,24.0,0.,24.0,0.,24.0
1986-01-26 22:48:11.550 ,6,1,27.,24.0,0.,24.0,0.,24.0,0.,24.0
1986-01-26 22:48:35.550 ,6,0,0.,24.0,0.,24.0,0.,24.0,0.,24.0
1986-01-26 22:48:59.550 ,5,1,0.,24.0,0.,24.0,0.,24.0,0.,24.0
1986-01-26 22:49:23.550 ,5,0,0.,24.0,0.,24.0,0.,24.0,0.,24.0
1986-01-26 22:49:47.550 ,4,1,0.,24.0,0.,24.0,0.,24.0,0.,24.0
1986-01-26 22:50:11.550 ,4,0,0.,24.0,0.,24.0,0.,24.0,0.,24.0
1986-01-26 22:50:35.550 ,3,1,0.,24.0,0.,24.0,0.,24.0,0.,24.0
1986-01-26 22:50:59.550 ,3,0,0.,24.0,0.,24.0,0.,24.0,0.,24.0
1986-01-26 22:51:23.550 ,2,1,0.,24.0,0.,24.0,0.,24.0,0.,24.0
1986-01-26 22:51:47.550 ,2,0,0.,24.0,0.,24.0,0.,24.0,0.,24.0
1986-01-26 22:52:11.550 ,1,1,0.,24.0,0.,24.0,0.,24.0,0.,24.0
1986-01-26 22:52:35.550 ,1,0,0.,24.0,0.,24.0,0.,24.0,0.,24.0
1986-01-26 22:52:59.550 ,0,1,0.,24.0,0.,24.0,0.,24.0,0.,24.0
1986-01-26 22:53:23.550 ,0,0,0.,24.0,0.,24.0,0.,24.0,0.,24.0
1986-01-26 22:53:47.550 ,0,1,0.,24.0,1.,24.0,0.,24.0,0.,24.0
1986-01-26 22:54:11.550 ,0,0,0.,24.0,0.,24.0,0.,24.0,0.,24.0
1986-01-26 22:54:35.550 ,1,1,0.,24.0,0.,24.0,0.,24.0,0.,24.0
1986-01-26 22:54:59.550 ,1,0,1.,24.0,0.,24.0,0.,24.0,0.,24.0
1986-01-26 22:55:23.550 ,2,1,0.,24.0,0.,24.0,0.,24.0,0.,24.0
1986-01-26 22:55:47.550 ,2,0,0.,24.0,0.,24.0,0.,24.0,0.,24.0
1986-01-26 22:56:11.550 ,3,1,0.,24.0,0.,24.0,0.,24.0,0.,24.0
1986-01-26 22:56:35.550 ,3,0,0.,24.0,0.,24.0,0.,24.0,0.,24.0
1986-01-26 22:56:59.550 ,4,1,0.,24.0,0.,24.0,0.,24.0,0.,24.0
1986-01-26 22:57:23.550 ,4,0,0.,24.0,0.,24.0,0.,24.0,0.,24.0
1986-01-26 22:57:47.550 ,5,1,0.,24.0,0.,24.0,0.,24.0,0.,24.0
1986-01-26 22:58:11.550 ,5,0,0.,24.0,0.,24.0,0.,24.0,0.,24.0
1986-01-26 22:58:35.550 ,6,1,0.,24.0,0.,24.0,0.,24.0,0.,24.0
1986-01-26 22:58:59.550 ,6,0,0.,24.0,0.,24.0,0.,24.0,0.,24.0
1986-01-26 22:59:23.550 ,7,1,13.,24.0,0.,24.0,0.,24.0,0.,24.0
1986-01-26 22:59:47.550 ,7,0,26.,24.0,0.,24.0,0.,24.0,0.,24.0
1986-01-26 23:00:11.550 ,7,1,27.,24.0,0.,24.0,0.,24.0,0.,24.0
1986-01-26 23:00:35.550 ,7,0,29.,24.0,0.,24.0,0.,24.0,0.,24.0
1986-01-26 23:00:59.550 ,6,1,24.,24.0,0.,24.0,0.,24.0,0.,24.0
1986-01-26 23:01:23.550 ,6,0,1.,24.0,0.,24.0,0.,24.0,0.,24.0
1986-01-26 23:01:47.550 ,5,1,0.,24.0,0.,24.0,0.,24.0,0.,24.0
1986-01-26 23:02:11.550 ,5,0,0.,24.0,0.,24.0,0.,24.0,0.,24.0
1986-01-26 23:02:35.550 ,4,1,0.,24.0,0.,24.0,0.,24.0,0.,24.0
1986-01-26 23:02:59.550 ,4,0,0.,24.0,0.,24.0,0.,24.0,0.,24.0
1986-01-26 23:03:23.550 ,3,1,0.,24.0,0.,24.0,0.,24.0,0.,24.0
1986-01-26 23:03:47.550 ,3,0,0.,24.0,0.,24.0,0.,24.0,0.,24.0
1986-01-26 23:04:11.550 ,2,1,0.,24.0,0.,24.0,0.,24.0,0.,24.0
1986-01-26 23:04:35.550 ,2,0,0.,24.0,0.,24.0,0.,24.0,0.,24.0
1986-01-26 23:04:59.550 ,1,1,0.,24.0,0.,24.0,0.,24.0,0.,24.0
1986-01-26 23:05:23.550 ,1,0,0.,24.0,0.,24.0,0.,24.0,0.,24.0
1986-01-26 23:05:47.550 ,0,1,1.,24.0,0.,24.0,0.,24.0,0.,24.0
1986-01-26 23:06:11.550 ,0,0,0.,24.0,0.,24.0,0.,24.0,0.,24.0
1986-01-26 23:06:35.550 ,0,1,0.,24.0,0.,24.0,0.,24.0,0.,24.0
1986-01-26 23:06:59.550 ,0,0,0.,24.0,0.,24.0,0.,24.0,0.,24.0
1986-01-26 23:07:23.550 ,1,1,0.,24.0,0.,24.0,0.,24.0,0.,24.0
1986-01-26 23:07:47.550 ,1,0,0.,24.0,1.,24.0,0.,24.0,0.,24.0
1986-01-26 23:08:11.550 ,2,1,0.,24.0,0.,24.0,0.,24.0,0.,24.0
1986-01-26 23:08:35.550 ,2,0,0.,24.0,0.,24.0,0.,24.0,0.,24.0
1986-01-26 23:08:59.550 ,3,1,0.,24.0,0.,24.0,0.,24.0,0.,24.0
1986-01-26 23:09:23.550 ,3,0,0.,24.0,0.,24.0,0.,24.0,0.,24.0
1986-01-26 23:09:47.550 ,4,1,0.,24.0,1.,24.0,0.,24.0,0.,24.0
1986-01-26 23:10:11.550 ,4,0,0.,24.0,0.,24.0,0.,24.0,0.,24.0
1986-01-26 23:10:35.550 ,5,1,0.,24.0,0.,24.0,0.,24.0,0.,24.0
1986-01-26 23:10:59.550 ,5,0,0.,24.0,0.,24.0,0.,24.0,0.,24.0
1986-01-26 23:11:23.550 ,6,1,0.,24.0,0.,24.0,0.,24.0,0.,24.0
1986-01-26 23:11:47.550 ,6,0,0.,24.0,0.,24.0,0.,24.0,0.,24.0
1986-01-26 23:12:11.550 ,7,1,10.,24.0,0.,24.0,0.,24.0,0.,24.0
1986-01-26 23:12:35.550 ,7,0,34.,24.0,0.,24.0,0.,24.0,0.,24.0
1986-01-26 23:12:59.550 ,7,1,29.,24.0,0.,24.0,0.,24.0,0.,24.0
1986-01-26 23:13:23.550 ,7,0,36.,24.0,0.,24.0,0.,24.0,0.,24.0
1986-01-26 23:13:47.550 ,6,1,24.,24.0,0.,24.0,0.,24.0,0.,24.0
1986-01-26 23:14:11.550 ,6,0,1.,24.0,0.,24.0,0.,24.0,0.,24.0
1986-01-26 23:14:35.550 ,5,1,0.,24.0,0.,24.0,0.,24.0,0.,24.0
1986-01-26 23:14:59.550 ,5,0,0.,24.0,0.,24.0,0.,24.0,0.,24.0
1986-01-26 23:15:23.550 ,4,1,1.,24.0,0.,24.0,0.,24.0,0.,24.0
1986-01-26 23:15:47.550 ,4,0,1.,24.0,0.,24.0,0.,24.0,0.,24.0
1986-01-26 23:16:11.550 ,3,1,1.,24.0,0.,24.0,0.,24.0,0.,24.0
1986-01-26 23:16:35.550 ,3,0,0.,24.0,0.,24.0,0.,24.0,0.,24.0
1986-01-26 23:16:59.550 ,2,1,1.,24.0,0.,24.0,0.,24.0,0.,24.0
1986-01-26 23:17:23.550 ,2,0,0.,24.0,0.,24.0,0.,24.0,0.,24.0
1986-01-26 23:17:47.550 ,1,1,0.,24.0,0.,24.0,0.,24.0,0.,24.0
1986-01-26 23:18:11.550 ,1,0,0.,24.0,0.,24.0,0.,24.0,0.,24.0
1986-01-26 23:18:35.550 ,0,1,0.,24.0,0.,24.0,0.,24.0,0.,24.0
1986-01-26 23:18:59.550 ,0,0,0.,24.0,1.,24.0,0.,24.0,0.,24.0
1986-01-26 23:19:23.550 ,0,1,0.,24.0,0.,24.0,0.,24.0,0.,24.0
1986-01-26 23:19:47.550 ,0,0,0.,24.0,0.,24.0,0.,24.0,0.,24.0
1986-01-26 23:20:11.550 ,1,1,0.,24.0,0.,24.0,0.,24.0,0.,24.0
1986-01-26 23:20:35.550 ,1,0,0.,24.0,0.,24.0,0.,24.0,0.,24.0
1986-01-26 23:20:59.550 ,2,1,0.,24.0,0.,24.0,0.,24.0,0.,24.0
1986-01-26 23:21:23.550 ,2,0,0.,24.0,0.,24.0,0.,24.0,0.,24.0
1986-01-26 23:21:47.550 ,3,1,0.,24.0,0.,24.0,0.,24.0,0.,24.0
1986-01-26 23:22:11.550 ,3,0,0.,24.0,0.,24.0,0.,24.0,0.,24.0
1986-01-26 23:22:35.550 ,4,1,0.,24.0,0.,24.0,0.,24.0,0.,24.0
1986-01-26 23:22:59.550 ,4,0,0.,24.0,0.,24.0,0.,24.0,0.,24.0
1986-01-26 23:23:23.550 ,5,1,0.,24.0,0.,24.0,0.,24.0,0.,24.0
1986-01-26 23:23:47.550 ,5,0,0.,24.0,0.,24.0,0.,24.0,0.,24.0
1986-01-26 23:24:11.550 ,6,1,0.,24.0,0.,24.0,0.,24.0,0.,24.0
1986-01-26 23:24:35.550 ,6,0,0.,24.0,0.,24.0,0.,24.0,0.,24.0
1986-01-26 23:24:59.550 ,7,1,14.,24.0,0.,24.0,0.,24.0,0.,24.0
1986-01-26 23:25:23.550 ,7,0,25.,24.0,0.,24.0,0.,24.0,0.,24.0
1986-01-26 23:25:47.550 ,7,1,28.,24.0,0.,24.0,0.,24.0,0.,24.0
1986-01-26 23:26:11.550 ,7,0,30.,24.0,1.,24.0,0.,24.0,0.,24.0
1986-01-26 23:26:35.550 ,6,1,26.,24.0,0.,24.0,0.,24.0,0.,24.0
1986-01-26 23:26:59.550 ,6,0,0.,24.0,0.,24.0,0.,24.0,0.,24.0
1986-01-26 23:27:23.550 ,5,1,0.,24.0,0.,24.0,0.,24.0,0.,24.0
1986-01-26 23:27:47.550 ,5,0,0.,24.0,0.,24.0,0.,24.0,0.,24.0
1986-01-26 23:28:11.550 ,4,1,0.,24.0,0.,24.0,0.,24.0,0.,24.0
1986-01-26 23:28:35.550 ,4,0,0.,24.0,0.,24.0,0.,24.0,0.,24.0
1986-01-26 23:28:59.550 ,3,1,0.,24.0,1.,24.0,0.,24.0,0.,24.0
1986-01-26 23:29:23.550 ,3,0,0.,24.0,0.,24.0,0.,24.0,0.,24.0
1986-01-26 23:29:47.550 ,2,1,0.,24.0,0.,24.0,0.,24.0,0.,24.0
1986-01-26 23:30:11.550 ,2,0,0.,24.0,0.,24.0,0.,24.0,0.,24.0
1986-01-26 23:30:35.550 ,1,1,0.,24.0,0.,24.0,0.,24.0,0.,24.0
1986-01-26 23:30:59.550 ,1,0,0.,24.0,0.,24.0,0.,24.0,0.,24.0
1986-01-26 23:31:23.550 ,0,1,0.,24.0,0.,24.0,0.,24.0,0.,24.0
1986-01-26 23:31:47.550 ,0,0,1.,24.0,0.,24.0,0.,24.0,0.,24.0
1986-01-26 23:32:11.550 ,0,1,0.,24.0,0.,24.0,0.,24.0,0.,24.0
1986-01-26 23:32:35.550 ,0,0,0.,24.0,0.,24.0,0.,24.0,0.,24.0
1986-01-26 23:32:59.550 ,1,1,0.,24.0,0.,24.0,0.,24.0,0.,24.0
1986-01-26 23:33:23.550 ,1,0,0.,24.0,0.,24.0,0.,24.0,0.,24.0
1986-01-26 23:33:47.550 ,2,1,0.,24.0,0.,24.0,0.,24.0,0.,24.0
1986-01-26 23:34:11.550 ,2,0,0.,24.0,0.,24.0,0.,24.0,0.,24.0